Starlink 34801

operational
NORAD ID: 66075 Int'l Des: 2025-235 Owner: SPXS Country: US Constellation: starlink
NOTLE

关于 Starlink 34801

正在加载描述...

实时位置

正在加载3D地球...

即将过境

高度历史

Altitude vs Time

uPlot chart will show altitude changes over time

两行轨道根数

1 66075C 25235U 25293.08451389 .00538110 00000+0 79460-3 0 2933
2 66075 53.1589 188.7677 0005655 295.3677 296.0685 16.03670304 18
Epoch: Oct 20, 2025 • Age: 19 hours

当前状态

高度 261.3 km
速度 7.75 km/s
星下点 5.86°N, 125.64°W
发射日期 Oct 19, 2025
运行时间 1 days
类型 internet

技术详情

分类 Payload
质量 575.00 kg
干质量 530.00 kg
总质量 575.00 kg
长度 0.30 m
直径 4.10 m
跨度 29.00 m
形状 Box + pan
制造商 SPXS
平台类型 Starlink V2MO
阶段状态 In Orbit
所有者/国家 SPXS/US

大型星座

Loading constellations...